Lid_Strength_Index
2 3 3 3 4 4 4 4 4 3 3 3 3 3 3 3 4 5 7 4 3 2 4 6 5 5 5 6 6 7 11 12 10 10 8 7 8 6 6 6 5 4 4 3 2
1 1 2 2 2 3 4 4 4 3 4 4 3 4 4 4 7 8 4 4 4 2 5 7 8 6 8 8 8 10 12 11 8 8 8 7 7 6 7 7 6 5 3 2 2
-0 -0 0 1 1 2 2 3 3 3 4 4 3 3 4 4 9 10 3 2 1 2 3 5 7 7 9 8 9 10 12 10 10 9 8 8 7 7 7 7 5 6 4 3 3
0 0 -0 -0 -0 0 1 1 2 2 3 3 4 3 4 6 14 7 4 4 1 1 4 5 7 9 10 10 9 12 10 9 10 9 9 9 7 8 7 6 5 5 3 3 4
0 1 0 0 0 -0 -0 -0 0 1 2 2 2 3 4 8 9 6 5 3 2 2 5 5 7 8 10 10 10 11 10 10 9 10 9 8 9 8 8 6 6 5 4 3 3
1 1 1 1 1 0 -0 -0 -0 -0 -0 1 2 2 6 11 5 5 6 4 3 3 5 5 5 6 8 9 10 10 10 10 10 10 10 10 10 9 7 6 6 6 6 5 4
1 1 1 1 1 1 0 -0 -0 -0 -0 1 1 3 7 8 4 4 5 5 5 4 5 4 4 6 7 9 8 9 11 10 10 10 10 10 12 11 8 7 7 7 6 5 5
2 2 2 2 1 1 1 0 -0 -0 0 0 1 3 8 4 2 4 4 5 4 4 3 3 3 5 6 7 9 10 11 13 10 10 10 10 15 11 8 9 9 8 7 6 5
2 2 2 2 2 1 1 1 0 -0 -0 0 3 4 9 2 5 3 3 5 5 3 3 3 4 6 7 10 11 11 14 13 11 9 10 11 13 10 9 9 9 8 8 7 6
2 2 2 2 2 2 1 1 0 0 1 1 3 8 6 8 5 4 2 4 6 4 4 5 7 9 9 11 16 14 13 12 12 10 10 11 12 10 9 10 10 9 9 8 7
1 1 1 2 1 1 1 2 5 6 5 8 8 8 7 5 3 5 3 5 5 6 9 7 10 12 12 10 10 10 11 12 10 10 11 11 11 10 9 9 9 9 8 8 7
0 1 1 1 1 1 1 5 5 5 8 5 6 6 5 5 8 6 4 8 8 10 7 10 12 9 8 9 10 10 12 12 10 10 11 11 11 10 9 9 9 9 9 8 8
0 0 0 0 0 1 3 4 1 2 9 7 6 7 6 6 8 7 5 6 9 10 10 11 10 8 9 10 11 11 12 12 11 11 10 11 13 12 10 9 8 8 8 8 8
1 0 -0 0 3 2 4 1 0 1 12 11 9 7 6 7 10 5 5 6 8 10 10 9 8 10 9 10 9 13 9 10 11 12 15 11 17 12 11 10 10 9 8 8 8
1 1 1 -0 3 4 3 1 1 3 19 9 9 4 5 8 7 8 4 6 10 10 9 11 10 10 11 10 9 11 8 10 10 12 12 13 15 14 11 13 11 9 9 8 8
0 0 0 1 1 1 1 0 3 13 19 12 9 9 10 8 8 7 7 5 6 9 9 10 8 9 10 9 8 8 10 10 10 11 16 14 14 15 13 12 11 9 8 8 7
-1 -1 1 -0 4 -1 -0 4 14 18 9 13 12 10 10 11 10 10 10 11 12 14 14 11 11 9 9 10 9 9 12 16 17 17 18 13 14 14 11 10 10 9 8 7 7
-1 -1 -0 0 -1 -0 2 9 17 13 12 9 9 11 13 10 11 11 11 13 9 11 12 15 16 11 9 11 12 11 12 15 20 19 17 13 16 14 10 8 9 8 8 7 7
-1 1 2 1 -1 1 7 15 14 12 9 11 10 13 13 11 11 11 12 12 10 9 13 14 14 9 9 9 9 12 13 11 14 15 16 14 13 10 10 9 8 8 8 8 7
2 3 3 -0 -0 3 10 13 11 9 9 10 14 11 14 13 13 13 13 9 10 8 8 10 14 10 10 8 8 10 9 14 14 19 20 16 15 14 12 10 9 9 8 8 7
3 7 2 -0 1 7 13 11 10 7 7 11 12 13 12 13 12 13 12 9 8 8 8 9 11 13 10 13 12 12 13 11 12 13 17 18 15 10 10 9 9 8 8 8 8
5 9 1 0 9 9 11 9 7 8 7 8 10 11 11 11 12 12 12 9 7 7 10 9 11 15 13 9 8 9 11 11 14 16 14 14 14 9 9 8 8 8 9 8 7
7 6 2 2 12 11 9 10 8 8 9 9 10 11 11 11 14 11 10 7 7 8 10 9 13 17 16 13 11 12 11 10 10 11 14 16 14 9 9 9 9 9 8 8 7
6 10 7 6 6 9 10 10 11 7 8 8 9 9 12 12 10 12 11 8 7 7 7 7 12 14 16 14 11 14 12 11 11 15 14 14 13 11 10 9 8 8 8 8 8
6 8 7 11 10 8 8 9 11 11 8 7 10 10 12 15 13 13 10 9 8 7 8 9 14 12 11 11 10 11 12 12 13 12 14 12 13 10 9 8 8 8 8 8 8
8 8 7 8 7 9 9 10 11 10 9 10 11 10 11 14 13 14 11 10 11 8 10 9 13 12 15 12 11 12 11 11 11 11 11 11 12 8 7 8 9 9 10 10 10
4 4 6 7 9 10 10 10 9 8 7 7 8 9 11 11 9 9 8 7 8 10 11 12 13 14 16 15 13 15 12 11 11 10 10 13 11 7 10 10 10 10 10 11 12